DateTimeUTC,F1_A11,F1_S11,BsB_S11,BsG_S11,BsR_S11,BbsB_S11,BbsG_S11,BbsR_S11,BaB_A11,BaG_A11,BaR_A11,Tu_S11,T_S11,Uu_S11,U_S11,P_S11,T1_A11
2021-07-22T18:00:00Z,00000200,20000000,,,,,,,-000.15,-000.24,-000.10,20.0,26.6,07.8,05.2,0667.4,31.2
2021-07-22T18:01:00Z,00000200,20000000,,,,,,,0000.08,0000.37,-000.17,20.0,26.6,07.9,05.3,0667.4,31.2
2021-07-22T18:02:00Z,00000200,20000000,,,,,,,0000.04,0000.47,0000.61,20.0,26.7,08.1,05.4,0667.4,31.2
2021-07-22T18:03:00Z,00000200,60000000,,,,,,,0000.69,0000.30,-000.05,20.0,26.7,08.1,05.4,0667.4,31.2
2021-07-22T18:04:00Z,00000200,40000000,0002.45,0001.78,0001.55,0000.38,0000.10,0000.22,0000.66,0000.34,0000.88,20.0,26.5,08.1,05.5,0668.4,31.2
2021-07-22T18:05:00Z,00000200,00000000,0002.73,0001.68,0001.17,0000.26,0000.08,0000.10,0000.12,0000.16,-000.47,20.1,26.5,08.1,05.5,0668.4,31.2
2021-07-22T18:06:00Z,00000200,00000000,0002.35,0001.80,0001.27,0001.01,0000.04,0000.35,0001.03,0000.68,0001.23,20.1,26.4,08.0,05.4,0668.4,31.2
2021-07-22T18:07:00Z,00000200,00000000,0002.58,0001.88,0000.97,0000.16,0000.25,0000.14,0000.40,0000.76,0000.20,20.1,26.4,08.3,05.6,0668.4,31.2
2021-07-22T18:08:00Z,00000200,00000000,0002.61,0001.91,0001.55,0000.64,0000.29,-000.05,0000.54,0000.76,0000.33,20.1,26.4,08.5,05.8,0668.4,31.2
2021-07-22T18:09:00Z,00000200,00000000,0002.35,0001.73,0001.05,0000.71,0000.11,0000.16,0000.67,0000.31,0000.47,20.1,26.4,08.4,05.7,0668.3,31.2
2021-07-22T18:10:00Z,00000200,00000000,0001.68,0001.51,0000.90,0000.19,0000.28,0000.18,0000.70,0000.76,0000.36,20.1,26.4,08.2,05.6,0668.3,31.2
2021-07-22T18:11:00Z,00000200,00000000,0001.81,0002.11,0001.28,0000.49,0000.02,0000.61,0000.28,0000.39,0000.60,20.1,26.4,08.3,05.6,0668.3,31.2
2021-07-22T18:12:00Z,00000200,00000000,0002.57,0001.65,0001.31,0000.44,0000.43,0000.13,0000.83,0000.57,0000.59,20.1,26.4,08.4,05.7,0668.3,31.2
2021-07-22T18:13:00Z,00000200,00000000,0001.95,0001.77,0001.06,0000.81,-000.01,0000.28,0000.42,0000.49,0000.36,20.1,26.4,08.4,05.7,0668.3,31.2
2021-07-22T18:14:00Z,00000200,00000000,0002.34,0001.73,0001.11,-000.23,0000.07,0000.08,0000.75,0000.46,0000.33,20.1,26.4,08.4,05.8,0668.3,31.2
2021-07-22T18:15:00Z,00000200,00000000,0002.36,0001.88,0001.46,0000.95,0000.13,0000.35,0000.44,0000.54,0000.38,20.1,26.4,08.4,05.8,0668.3,31.2
2021-07-22T18:16:00Z,00000200,00000000,0001.84,0002.18,0000.79,0000.39,0000.33,-000.23,0000.42,0000.51,0000.43,20.1,26.4,08.4,05.8,0668.3,31.2
2021-07-22T18:17:00Z,00000200,00000000,0002.44,0001.65,0000.96,0000.65,0000.44,0000.20,0000.15,0000.27,0000.17,20.1,26.4,08.3,05.6,0668.3,31.2
2021-07-22T18:18:00Z,00000200,00000000,0002.01,0001.90,0001.11,0000.22,-000.03,0000.23,0000.65,0000.39,0000.32,20.0,26.4,08.2,05.6,0668.3,31.2
2021-07-22T18:19:00Z,00000200,00000000,0002.11,0001.79,0000.79,0000.46,0000.02,0000.22,0000.56,0000.29,0000.46,20.0,26.4,08.2,05.6,0668.3,31.2
2021-07-22T18:20:00Z,00000200,00000000,0001.98,0001.53,0000.65,-000.27,0000.26,-000.25,0000.45,0000.82,0000.48,20.0,26.3,08.3,05.7,0668.3,31.2
2021-07-22T18:21:00Z,00000200,00000000,0002.73,0001.57,0000.86,0000.31,0000.11,0000.40,0000.76,0000.65,0000.30,20.0,26.3,08.3,05.7,0668.3,31.2
2021-07-22T18:22:00Z,00000200,00000000,0001.22,0001.56,0001.19,0000.44,0000.30,0000.23,0000.43,-000.04,0000.42,20.0,26.3,08.5,05.8,0668.3,31.2
2021-07-22T18:23:00Z,00000200,00000000,0001.45,0001.64,0000.61,0000.46,0000.29,0000.01,0000.55,0000.98,0000.32,20.0,26.3,08.3,05.7,0668.3,31.2
2021-07-22T18:24:00Z,00000200,00000000,0002.70,0000.89,0001.01,0000.75,0000.39,0000.48,0000.07,-000.13,0000.39,20.0,26.3,08.4,05.7,0668.3,31.2
2021-07-22T18:25:00Z,00000200,00000000,0002.29,0001.77,0000.88,-000.39,0000.11,0000.08,0000.54,0000.52,0000.23,20.0,26.3,08.2,05.6,0668.3,31.2
2021-07-22T18:26:00Z,00000200,00000000,0002.32,0001.31,0000.92,0001.06,0000.28,0000.48,0000.63,0000.70,0000.27,20.0,26.3,08.2,05.6,0668.3,31.2
2021-07-22T18:27:00Z,00000200,00000000,0002.25,0001.42,0000.88,0000.74,0000.02,0000.43,0000.06,-000.15,0000.31,20.0,26.3,08.1,05.5,0668.3,31.2
2021-07-22T18:28:00Z,00000200,00000000,0002.52,0001.95,0000.95,0000.44,0000.10,0000.59,0000.32,0000.26,0000.02,20.0,26.3,08.0,05.4,0668.3,31.2
2021-07-22T18:29:00Z,00000200,00000000,0002.63,0001.40,0001.02,-000.01,-000.04,-000.09,0000.59,0000.41,0000.56,20.0,26.3,08.1,05.5,0668.3,31.2
2021-07-22T18:30:00Z,00000200,00000000,0002.60,0001.50,0000.90,0000.46,0000.32,0000.11,0000.33,0000.51,0000.12,20.0,26.3,08.2,05.6,0668.3,31.2
2021-07-22T18:31:00Z,00000200,00000000,0002.69,0001.81,0001.00,-000.06,0000.17,0000.52,0000.22,0000.43,0000.21,20.0,26.3,08.1,05.5,0668.3,31.2
2021-07-22T18:32:00Z,00000200,00000000,0002.90,0001.49,0000.89,0000.34,0000.18,0000.33,0000.61,0000.74,0000.71,20.0,26.3,08.1,05.5,0668.2,31.2
2021-07-22T18:33:00Z,00000200,00000000,0001.24,0001.45,0001.15,0000.35,0000.19,0000.31,0000.60,0000.23,0000.04,20.0,26.3,08.1,05.5,0668.2,31.2
2021-07-22T18:34:00Z,00000200,00000000,0002.28,0001.76,0001.01,0000.11,0000.26,0000.21,0000.24,0000.49,0000.57,20.0,26.3,08.0,05.4,0668.2,31.2
2021-07-22T18:35:00Z,00000200,00000000,0002.33,0001.71,0001.06,0000.06,0000.04,0000.23,0000.28,-000.07,-000.20,20.0,26.3,07.8,05.4,0668.2,31.2
2021-07-22T18:36:00Z,00000200,00000000,0002.44,0001.55,0000.99,0001.04,0000.27,0000.12,0000.82,0000.86,0001.15,20.0,26.3,07.9,05.4,0668.2,31.2
2021-07-22T18:37:00Z,00000200,00000000,0002.11,0001.70,0000.97,0000.39,0000.18,0000.31,0000.58,0000.13,-000.07,20.0,26.3,08.1,05.5,0668.2,31.2
2021-07-22T18:38:00Z,00000200,00000000,0002.13,0001.57,0000.80,0000.62,0000.29,0000.16,0000.36,0000.76,0000.47,20.0,26.3,08.0,05.5,0668.2,31.2
2021-07-22T18:39:00Z,00000200,00000000,0002.70,0001.52,0001.16,0000.41,0000.34,0000.13,0000.21,0000.32,0000.11,20.0,26.3,08.0,05.5,0668.2,31.2
2021-07-22T18:40:00Z,00000200,00000000,0002.18,0001.09,0001.47,-000.10,0000.09,0000.44,0000.55,0000.47,0000.19,20.0,26.3,07.9,05.4,0668.2,31.2
2021-07-22T18:41:00Z,00000200,00000000,0002.47,0001.83,0001.27,0000.63,-000.05,0000.47,0000.76,0000.71,0000.55,20.0,26.3,08.1,05.5,0668.2,31.2
2021-07-22T18:42:00Z,00000200,00000000,0002.53,0001.74,0000.95,0000.68,0000.27,0000.51,0000.78,0000.37,0000.71,20.0,26.3,08.0,05.5,0668.2,31.2
2021-07-22T18:43:00Z,00000200,00000000,0002.44,0001.58,0001.03,-000.14,0000.21,0000.08,0000.68,0000.40,0000.32,20.0,26.3,08.2,05.6,0668.2,31.2
2021-07-22T18:44:00Z,00000200,00000000,0001.52,0001.86,0001.17,0001.14,0000.46,0000.28,-000.07,0000.60,0000.26,20.0,26.3,08.0,05.5,0668.2,31.2
2021-07-22T18:45:00Z,00000200,00000000,0002.25,0001.67,0001.41,0000.63,0000.26,0000.64,0000.94,0000.56,0000.61,20.0,26.3,08.1,05.5,0668.2,31.2
2021-07-22T18:46:00Z,00000200,00000000,0002.49,0001.48,0001.00,0000.22,0000.15,0000.19,0000.50,0000.35,0000.13,20.0,26.3,08.2,05.6,0668.2,31.2
2021-07-22T18:47:00Z,00000200,00000000,0002.35,0001.88,0001.34,0000.02,0000.23,0000.60,0000.66,0000.68,0000.76,19.9,26.2,08.2,05.6,0668.2,31.2
2021-07-22T18:48:00Z,00000200,00000000,0002.61,0001.62,0000.97,0000.55,-000.13,0000.27,0000.43,0000.70,0000.25,19.9,26.2,08.3,05.7,0668.2,31.2
2021-07-22T18:49:00Z,00000200,00000000,0002.50,0001.88,0000.67,0000.04,0000.15,0000.10,0000.84,0000.65,0000.48,19.9,26.2,08.3,05.7,0668.1,31.2
2021-07-22T18:50:00Z,00000200,00000000,0002.91,0001.68,0001.17,0000.20,0000.27,0000.33,0000.56,0000.42,0000.61,19.9,26.2,08.3,05.7,0668.1,31.1
2021-07-22T18:51:00Z,00000200,00000000,0001.87,0001.71,0001.18,-000.15,0000.26,0000.70,-000.01,0000.09,-000.31,19.9,26.2,08.2,05.6,0668.1,31.2
2021-07-22T18:52:00Z,00000200,00000000,0002.41,0001.67,0000.73,0000.59,-000.11,0000.44,0000.10,0000.25,0000.42,19.9,26.2,08.0,05.5,0668.1,31.2
2021-07-22T18:53:00Z,00000200,00000000,0002.64,0001.54,0001.25,0000.58,0000.22,0000.47,0001.13,0000.61,0000.22,19.9,26.2,08.0,05.4,0668.1,31.2
2021-07-22T18:54:00Z,00000200,00000000,0002.72,0001.94,0001.10,0000.03,0000.25,0000.16,0000.31,0000.62,0000.68,19.9,26.2,08.0,05.5,0668.1,31.2
2021-07-22T18:55:00Z,00000200,00000000,0001.99,0001.69,0000.83,0000.20,0000.27,0000.18,0000.78,0000.32,0000.46,19.9,26.2,08.1,05.6,0668.1,31.2
2021-07-22T18:56:00Z,00000200,00000000,0002.08,0002.04,0000.91,0000.62,0000.41,0000.20,0000.85,0001.11,0000.92,19.9,26.2,08.1,05.5,0668.1,31.2
2021-07-22T18:57:00Z,00000200,40000000,,,,,,,-000.21,-000.38,-000.33,20.0,26.2,07.9,05.4,0668.1,31.2
2021-07-22T18:58:00Z,00000200,60000000,,,,,,,0000.06,0000.22,0000.21,19.8,26.3,08.2,05.5,0667.1,31.2
2021-07-22T18:59:00Z,00000200,20000000,,,,,,,-000.27,-000.15,-000.39,19.7,26.4,08.2,05.5,0667.1,31.2
